Wind_Speed
6 10 16 10 17 24 14 13 14 19 7 5 17 19 20 3 5 11 17 18 10 4 2 10 11 15 15 13 11 9 8 9 13 14 13 10 8 8 9 10 5 8 11 10
8 11 5 16 7 4 7 10 15 15 14 7 14 23 17 4 4 6 11 7 9 6 10 9 7 7 9 11 11 10 8 7 8 14 13 12 13 13 13 12 7 6 10 8
9 8 18 18 7 10 9 11 10 9 6 9 24 26 13 7 12 10 12 14 15 12 5 6 6 8 8 8 13 12 10 8 9 10 17 16 17 16 12 9 11 7 11 12
14 9 18 4 1 10 14 13 13 10 8 10 14 5 14 14 10 11 10 16 17 18 13 12 10 9 11 8 15 16 15 13 13 11 16 17 15 12 12 10 14 11 15 15
5 10 10 9 11 10 14 12 15 17 18 12 8 8 17 16 17 19 14 16 15 13 16 17 14 8 9 13 12 15 17 16 16 12 13 15 16 13 12 9 8 10 8 18
12 7 8 9 12 4 13 19 12 18 17 8 9 13 17 21 8 17 21 17 13 13 13 17 17 14 14 14 15 16 17 17 12 13 14 15 13 11 12 11 6 4 8 14
24 5 8 8 9 9 11 16 7 7 4 7 6 9 10 13 13 11 13 16 17 17 15 17 21 22 17 17 14 11 14 14 11 13 16 15 16 13 11 10 10 1 7 10
12 8 5 7 6 11 6 9 7 2 2 4 4 7 16 16 13 10 8 7 9 18 21 20 20 22 20 16 14 10 13 11 12 14 15 16 16 14 12 12 7 2 6 10
9 10 12 6 6 10 4 11 9 8 3 6 4 8 8 18 10 10 9 7 9 10 13 22 26 28 21 15 9 5 12 12 12 16 17 17 14 13 12 11 8 4 4 6
7 7 12 9 5 4 3 8 7 10 2 2 3 5 10 12 11 9 9 11 12 14 15 18 29 31 23 15 5 3 13 18 17 18 20 18 16 13 12 10 9 6 7 7
9 10 14 8 17 8 5 6 5 2 7 5 1 3 10 13 9 4 4 10 14 8 10 14 21 29 26 15 11 9 8 21 21 19 21 20 18 16 14 11 9 9 11 9
8 8 11 9 8 15 11 15 10 6 5 9 3 6 11 3 5 4 11 9 11 7 7 8 13 16 11 19 10 19 14 18 20 20 19 19 19 18 17 14 13 13 13 12
13 2 3 5 5 5 18 14 15 11 8 9 9 2 3 10 11 13 3 2 3 2 6 11 15 14 19 17 14 26 26 19 19 21 19 21 20 21 20 18 16 16 16 15
12 2 4 4 11 14 17 15 11 11 10 12 12 11 14 8 11 11 10 8 8 5 9 13 12 10 7 3 10 32 34 26 22 21 21 21 21 20 19 19 20 18 18 18
6 5 7 11 12 14 15 14 14 12 10 14 20 18 12 7 9 10 9 11 11 9 4 8 10 9 5 7 5 19 31 30 31 32 30 25 25 26 27 26 23 21 20 20
3 4 9 14 14 17 22 18 13 14 16 4 2 4 4 8 6 12 12 11 9 7 9 12 10 11 10 9 10 14 24 28 29 30 35 34 33 30 31 30 23 25 25 24
15 13 11 18 15 14 17 8 9 20 9 4 2 5 3 1 6 12 10 15 13 11 10 11 15 25 23 13 10 15 20 32 33 40 42 38 42 40 37 30 20 30 27 26
24 18 15 18 12 5 11 17 15 6 9 4 6 5 1 2 3 5 7 10 10 14 17 21 23 20 16 17 25 13 18 26 30 31 40 42 48 37 25 12 22 23 23 28
19 20 23 16 14 13 21 8 9 14 5 3 6 6 4 4 6 7 7 8 13 15 10 10 14 14 16 18 19 11 36 27 28 29 28 27 47 22 22 20 28 29 29 34
12 21 23 11 5 6 4 6 8 8 6 8 9 11 13 15 16 18 18 17 17 19 20 18 18 20 20 20 25 30 27 14 22 23 22 24 26 22 20 27 27 25 19 24
7 16 20 19 12 12 16 12 15 15 11 17 19 20 22 22 22 23 25 24 26 28 29 28 17 21 23 24 28 26 28 29 27 27 31 28 28 27 31 28 25 23 21 17
15 15 23 22 16 9 14 15 15 16 17 17 19 20 20 20 21 23 26 30 33 32 33 33 31 25 27 30 32 34 34 32 22 19 22 34 31 25 24 22 23 23 20 20
10 9 16 15 17 14 15 19 17 15 15 18 21 24 26 28 30 32 33 30 33 33 30 31 32 34 32 33 34 34 31 29 31 24 20 25 34 32 30 33 29 22 22 22
12 8 10 9 10 12 14 16 17 19 21 24 27 31 33 33 31 31 34 37 32 32 31 30 29 27 26 26 29 30 32 35 32 30 24 28 33 45 47 48 29 37 35 31
20 17 13 9 5 11 15 16 19 22 25 27 28 29 31 32 34 37 36 31 32 30 28 28 30 32 31 28 27 29 32 34 36 38 36 33 38 44 40 50 46 51 47 36
29 22 18 19 15 15 18 19 21 23 26 28 30 33 36 39 37 32 33 32 29 28 30 33 35 37 38 37 36 34 36 38 41 41 41 37 38 46 45 49 51 57 50 44
Wind_Direction
194 267 276 314 304 298 289 278 284 316 281 157 197 184 158 95 115 292 250 243 242 166 154 201 203 195 187 189 215 209 210 190 207 214 228 238 242 257 260 258 232 199 198 206
257 267 320 323 338 357 311 301 323 359 254 243 196 169 198 233 281 302 237 237 240 221 227 204 207 225 216 200 216 225 229 229 234 233 238 240 242 247 259 266 249 199 217 228
280 305 334 311 325 324 302 321 333 8 65 183 181 185 208 208 228 209 209 243 251 243 279 284 252 261 267 252 240 252 257 255 266 251 243 237 241 245 253 258 239 213 202 218
300 319 318 276 331 17 332 314 305 315 324 160 200 237 190 201 193 208 238 244 251 247 239 259 270 280 272 278 255 263 268 266 262 254 237 239 245 248 251 244 253 242 227 206
282 289 319 300 331 304 308 324 298 295 299 287 212 206 202 186 197 200 221 243 244 247 251 264 281 297 294 257 269 267 264 264 257 259 247 236 236 233 240 244 213 238 248 224
289 292 261 269 328 312 325 350 321 296 270 277 289 204 189 214 219 194 209 227 244 248 265 265 262 260 255 255 257 260 263 260 260 265 247 231 225 222 219 211 184 238 218 215
333 218 211 255 303 318 327 26 351 1 25 219 176 167 166 163 165 178 204 222 253 251 253 259 252 251 246 247 253 266 247 249 254 248 239 226 213 206 195 197 219 241 223 219
4 5 218 214 304 343 15 12 25 290 307 279 128 158 158 140 103 168 166 179 269 248 249 259 266 260 257 250 242 269 233 223 250 238 228 218 209 203 185 191 195 185 228 220
348 346 20 227 312 346 6 12 0 13 11 43 63 113 125 151 150 158 193 216 260 264 256 242 256 237 245 243 245 301 224 202 225 229 219 211 213 201 190 199 198 183 233 208
7 318 3 8 356 319 258 3 348 5 46 24 127 154 166 157 173 184 243 273 305 300 252 261 240 240 238 230 197 255 208 206 209 220 220 207 205 205 201 205 219 217 232 211
349 332 302 339 18 17 219 326 14 340 47 155 236 92 139 158 164 174 261 324 321 287 297 286 252 241 221 218 222 199 224 217 203 214 217 218 210 207 211 211 213 221 235 207
330 299 286 282 109 52 53 19 17 25 22 48 346 125 135 211 224 249 290 298 325 298 327 310 279 239 273 250 222 261 223 215 223 211 224 221 217 218 221 219 214 225 229 219
353 296 319 268 255 345 355 357 12 5 9 50 21 140 27 225 250 278 264 237 272 345 329 286 270 278 274 239 236 214 235 213 210 217 225 230 225 219 220 222 221 221 233 231
358 356 274 307 329 339 333 330 341 344 341 330 311 308 310 284 249 275 234 240 234 295 298 300 291 300 330 274 283 242 249 230 221 220 216 222 226 224 219 218 223 221 226 235
46 45 339 327 322 317 327 325 314 321 305 286 290 287 320 311 285 254 230 250 293 299 326 316 273 267 289 281 282 233 240 237 241 242 237 229 231 232 227 222 221 227 229 233
276 281 285 307 309 307 311 297 293 294 303 286 228 117 10 327 270 189 204 257 276 265 276 286 297 279 260 266 293 296 240 252 252 247 240 240 240 238 241 234 241 234 228 226
267 274 275 296 303 305 305 286 321 315 269 240 202 98 90 51 148 183 216 223 234 244 268 287 305 327 288 279 262 270 257 249 236 250 247 239 244 241 232 215 232 243 233 231
270 268 265 282 288 310 291 316 307 172 128 149 163 137 225 250 148 204 191 193 226 256 270 275 288 288 289 257 264 269 272 260 250 246 247 242 238 238 263 185 268 271 257 243
237 236 253 263 261 270 292 338 172 197 131 152 233 242 262 280 286 271 250 241 244 255 284 272 273 271 285 295 303 245 277 264 256 265 276 269 239 271 279 266 260 267 266 249
207 221 243 201 206 218 233 296 268 239 212 249 243 258 271 282 285 286 282 282 281 289 294 290 269 281 281 273 276 282 294 294 263 267 271 265 260 262 252 254 263 262 255 256
279 210 222 242 242 251 256 249 233 247 230 246 261 270 282 287 287 290 292 297 299 298 297 297 289 286 287 282 281 284 287 288 305 277 280 275 270 253 247 242 242 238 242 243
282 272 244 233 230 226 245 242 241 251 239 244 261 274 280 285 288 289 291 294 295 295 293 292 290 284 282 290 291 291 290 294 293 280 293 266 255 252 244 235 224 223 232 241
277 275 237 226 235 240 238 254 265 251 244 254 264 274 282 288 292 295 300 303 302 295 289 287 288 288 286 282 283 286 289 284 283 265 262 251 240 243 256 248 233 231 236 242
235 245 228 232 197 219 248 259 261 260 263 272 280 287 291 294 297 299 304 304 296 296 299 298 295 292 291 285 286 287 281 274 271 268 258 242 243 238 250 249 245 243 242 249
247 243 252 230 227 254 260 261 260 267 279 286 287 290 290 292 297 300 300 300 302 302 300 298 301 306 304 297 288 283 280 279 278 272 263 249 246 246 242 239 242 230 244 244
241 248 253 253 256 262 264 270 275 281 282 283 281 282 287 295 298 299 305 305 302 302 308 309 306 301 297 295 291 282 271 265 264 262 263 253 243 238 246 244 243 243 240 241
Height
3180 3180 3177 3175 3175 3177 3175 3173 3172 3170 3172 3175 3175 3173 3175 3173 3169 3172 3172 3175 3178 3179 3179 3181 3183 3185 3187 3188 3190 3192 3196 3199 3200 3201 3203 3205 3206 3205 3205 3206 3208 3210 3209 3210
3179 3176 3175 3176 3173 3172 3172 3171 3172 3168 3169 3174 3173 3176 3176 3174 3172 3169 3173 3172 3173 3178 3179 3180 3181 3182 3183 3185 3186 3189 3193 3197 3199 3200 3201 3202 3202 3204 3205 3206 3207 3209 3209 3210
3175 3172 3172 3173 3173 3170 3169 3170 3169 3170 3167 3170 3172 3174 3171 3170 3169 3167 3168 3169 3171 3173 3176 3177 3177 3178 3179 3180 3183 3186 3190 3193 3196 3198 3199 3199 3201 3202 3204 3204 3205 3206 3207 3209
3172 3171 3171 3170 3169 3169 3167 3168 3168 3169 3168 3168 3170 3169 3166 3166 3166 3165 3165 3164 3168 3169 3171 3174 3175 3176 3178 3178 3182 3185 3190 3192 3196 3198 3199 3198 3200 3201 3201 3201 3201 3202 3204 3204
3170 3168 3168 3168 3168 3167 3166 3164 3163 3161 3163 3164 3166 3164 3161 3162 3161 3160 3160 3163 3165 3166 3168 3170 3173 3175 3177 3179 3182 3184 3188 3192 3195 3196 3196 3198 3198 3199 3199 3201 3200 3201 3201 3202
3167 3167 3166 3166 3166 3166 3164 3162 3158 3155 3155 3159 3156 3158 3160 3157 3158 3161 3164 3164 3165 3165 3166 3168 3172 3174 3174 3178 3180 3184 3188 3191 3192 3193 3194 3195 3196 3196 3197 3199 3199 3199 3200 3200
3163 3160 3164 3166 3166 3164 3163 3160 3157 3157 3157 3156 3153 3156 3155 3157 3159 3162 3164 3166 3165 3163 3165 3166 3167 3169 3170 3173 3178 3182 3185 3187 3189 3191 3192 3193 3193 3194 3195 3196 3197 3198 3198 3198
3166 3164 3164 3163 3164 3163 3162 3162 3161 3163 3163 3154 3155 3155 3157 3159 3161 3162 3165 3165 3161 3161 3163 3162 3164 3166 3168 3172 3176 3180 3182 3184 3186 3187 3189 3191 3191 3191 3194 3195 3195 3195 3195 3195
3165 3165 3164 3164 3164 3164 3162 3161 3161 3158 3158 3156 3158 3159 3159 3159 3160 3163 3163 3163 3162 3159 3159 3159 3162 3164 3168 3172 3175 3178 3179 3180 3182 3184 3185 3187 3188 3190 3192 3191 3191 3192 3191 3193
3166 3164 3164 3164 3162 3161 3161 3162 3160 3159 3163 3164 3160 3159 3158 3158 3161 3163 3161 3162 3162 3159 3157 3157 3159 3163 3167 3171 3173 3175 3175 3176 3178 3179 3181 3183 3184 3187 3189 3189 3189 3190 3190 3191
3166 3166 3165 3165 3164 3161 3162 3160 3160 3160 3162 3162 3163 3161 3160 3161 3162 3163 3163 3162 3160 3158 3157 3155 3156 3160 3165 3170 3171 3171 3173 3173 3173 3175 3178 3180 3181 3181 3184 3186 3186 3187 3187 3188
3164 3163 3162 3163 3163 3163 3163 3161 3160 3160 3162 3161 3159 3162 3162 3162 3161 3162 3159 3160 3159 3156 3155 3155 3155 3159 3162 3170 3173 3172 3169 3170 3172 3173 3175 3177 3178 3179 3179 3180 3182 3182 3183 3184
3163 3161 3161 3160 3162 3160 3160 3162 3161 3159 3158 3159 3160 3162 3162 3161 3160 3159 3156 3157 3159 3156 3157 3156 3157 3159 3161 3159 3157 3162 3160 3165 3168 3170 3171 3173 3174 3175 3176 3177 3177 3178 3179 3180
3162 3160 3162 3164 3165 3164 3162 3161 3160 3159 3158 3157 3158 3158 3158 3158 3158 3156 3154 3157 3158 3160 3159 3156 3156 3157 3158 3156 3153 3155 3157 3160 3162 3165 3164 3166 3168 3169 3169 3170 3171 3172 3174 3175
3162 3162 3162 3162 3162 3162 3160 3158 3157 3157 3157 3154 3152 3153 3153 3153 3154 3154 3155 3156 3156 3157 3158 3154 3152 3151 3150 3153 3156 3154 3153 3154 3157 3159 3162 3162 3163 3164 3165 3164 3164 3166 3167 3169
3161 3160 3160 3161 3160 3159 3156 3156 3155 3155 3153 3150 3148 3148 3149 3149 3148 3152 3153 3153 3154 3155 3153 3151 3149 3150 3151 3151 3154 3156 3154 3155 3153 3152 3155 3154 3154 3154 3157 3160 3162 3160 3161 3163
3158 3158 3157 3157 3158 3156 3153 3152 3152 3151 3151 3146 3145 3148 3149 3148 3149 3151 3154 3151 3152 3151 3148 3146 3146 3150 3150 3149 3148 3149 3148 3150 3149 3146 3144 3143 3142 3142 3140 3144 3154 3158 3156 3158
3153 3154 3154 3154 3155 3155 3150 3149 3148 3147 3147 3144 3144 3146 3146 3146 3148 3151 3151 3150 3150 3148 3147 3145 3145 3146 3146 3145 3142 3145 3146 3144 3143 3139 3134 3134 3134 3135 3105 3116 3143 3150 3151 3152
3147 3149 3150 3150 3150 3150 3148 3148 3147 3145 3145 3145 3144 3145 3145 3145 3146 3148 3149 3146 3147 3144 3143 3141 3138 3140 3140 3134 3127 3134 3144 3138 3132 3129 3118 3099 3093 3123 3125 3135 3142 3142 3144 3145
3138 3142 3146 3145 3146 3145 3146 3146 3146 3144 3143 3142 3143 3143 3142 3143 3143 3143 3144 3143 3143 3140 3137 3137 3135 3133 3133 3135 3135 3136 3132 3129 3127 3124 3122 3121 3121 3118 3130 3132 3133 3135 3135 3137
3140 3139 3139 3139 3139 3139 3140 3141 3142 3143 3145 3139 3140 3141 3141 3141 3141 3139 3138 3138 3136 3134 3131 3128 3129 3128 3127 3126 3125 3122 3122 3122 3122 3122 3119 3119 3117 3120 3122 3121 3123 3126 3129 3130
3135 3135 3134 3134 3135 3135 3134 3136 3138 3138 3137 3137 3136 3136 3137 3137 3137 3136 3135 3132 3130 3129 3124 3120 3120 3121 3121 3118 3117 3114 3115 3114 3112 3112 3115 3116 3116 3118 3117 3116 3118 3119 3121 3124
3132 3129 3129 3131 3129 3127 3128 3130 3131 3131 3133 3133 3134 3133 3134 3134 3132 3129 3127 3124 3122 3121 3118 3114 3112 3109 3109 3111 3110 3108 3107 3105 3105 3107 3108 3109 3110 3111 3112 3113 3114 3113 3115 3116
3126 3126 3126 3127 3126 3126 3125 3125 3126 3126 3127 3128 3128 3127 3126 3125 3125 3124 3121 3117 3113 3110 3109 3108 3107 3106 3104 3103 3100 3097 3095 3094 3094 3096 3098 3100 3100 3100 3102 3106 3108 3111 3109 3109
3121 3122 3122 3122 3123 3123 3122 3122 3123 3122 3123 3123 3122 3122 3120 3118 3117 3114 3112 3109 3107 3105 3104 3101 3098 3095 3094 3094 3092 3088 3085 3083 3082 3081 3082 3085 3086 3088 3090 3092 3096 3099 3100 3100
3115 3117 3117 3117 3118 3118 3118 3118 3118 3118 3118 3118 3117 3116 3114 3112 3109 3107 3106 3103 3100 3097 3095 3093 3089 3085 3081 3079 3078 3077 3073 3071 3068 3067 3069 3070 3072 3073 3076 3079 3080 3083 3086 3089